Location: Unspecified
(0.0000°N, 0.0000°E)
Time: 03:53:30
(UTC+00:00)

Tiangong 2 - Pass Details

Date: 30 April 2017
Orbit: 379 x 390 km, 42.8° (Epoch: 27 May)

Event Time Altitude Azimuth Distance (km) Brightness Sun altitude
Exits shadow 04:11:36 22° 46° (NE) 880 3.5 -25.5°
Drops below altitude 10° 04:12:50 10° 46° (NE) 1,376 4.7 -25.2°
Sets 04:14:53 0° 45° (NE) 2,225 5.9 -24.7°
